epoch,value
1656293034.288,0.000000
1656293035.288,0.000000
1656293036.288,0.000000
1656293037.288,0.000000
1656293038.288,0.000000
1656293039.288,0.000000
1656293040.288,0.000000
1656293041.288,0.000000
1656293042.288,0.000000
1656293043.288,0.000000
1656293044.288,0.000000
1656293045.288,0.000000
1656293046.288,0.000000
1656293047.288,0.000000
1656293048.288,0.000000
1656293049.288,0.000000
1656293050.288,0.000000
1656293051.288,0.000000
1656293052.288,0.000000
1656293053.288,0.000000
1656293054.288,0.000000
1656293055.288,0.000000
1656293056.288,0.000000
1656293057.288,0.990099
1656293058.288,0.000000
1656293059.288,0.000000
1656293060.288,0.000000
1656293061.288,0.000000
1656293062.288,0.000000
1656293063.288,0.000000
1656293064.288,0.000000
1656293065.288,0.000000
1656293066.288,0.000000
1656293067.288,0.000000
1656293068.288,0.000000
1656293069.288,0.000000
1656293070.288,0.000000
1656293071.288,0.000000
1656293072.288,0.000000
1656293073.288,0.000000
1656293074.288,0.000000
1656293075.288,0.000000
1656293076.288,0.000000
1656293077.288,0.000000
1656293078.288,0.000000
1656293079.288,0.000000
1656293080.288,0.000000
1656293081.288,0.000000
1656293082.288,0.000000
1656293083.288,0.000000
1656293084.288,0.000000
1656293085.288,0.000000
1656293086.288,0.000000
1656293087.288,0.000000
1656293088.288,0.000000
1656293089.288,0.000000
1656293090.288,0.000000
1656293091.288,0.000000
1656293092.288,0.000000
1656293093.288,0.000000
1656293094.288,0.000000
1656293095.288,0.000000
1656293096.288,0.000000
1656293097.288,0.000000
1656293098.288,0.000000
1656293099.288,0.000000
1656293100.288,0.000000
1656293101.288,0.000000
1656293102.288,0.000000
1656293103.288,0.000000
1656293104.288,0.000000
1656293105.288,0.000000
1656293106.288,0.000000
1656293107.288,0.000000
1656293108.288,0.000000
1656293109.288,0.000000
1656293110.288,0.000000
1656293111.288,0.000000
1656293112.288,0.000000
1656293113.288,0.000000
1656293114.288,0.000000
1656293115.288,0.000000
1656293116.288,0.000000
1656293117.288,0.000000
1656293118.288,0.000000
1656293119.288,0.000000
1656293120.288,0.000000
1656293121.288,0.000000
1656293122.288,0.000000
1656293123.288,0.000000
1656293124.288,0.000000
1656293125.288,0.000000
1656293126.288,0.000000
1656293127.288,0.000000
1656293128.288,0.000000
1656293129.288,0.000000
1656293130.288,0.000000
1656293131.288,0.000000
1656293132.288,0.000000
1656293133.288,0.000000
1656293134.288,0.000000
1656293135.288,0.000000
1656293136.288,0.000000
1656293137.288,0.000000
1656293138.288,0.000000
1656293139.288,0.000000
1656293140.288,0.000000
1656293141.288,0.000000
1656293142.288,0.000000
1656293143.288,0.000000
1656293144.288,0.000000
1656293145.288,0.000000
1656293146.288,0.000000
1656293147.288,0.000000
1656293148.288,0.000000
1656293149.288,0.000000
1656293150.288,0.000000
1656293151.288,0.000000
1656293152.288,0.000000
1656293153.288,0.000000
1656293154.288,0.000000
1656293155.288,0.000000
1656293156.288,0.000000
1656293157.288,0.000000
1656293158.288,0.000000
1656293159.288,0.000000
1656293160.288,0.000000
1656293161.288,0.000000
1656293162.288,0.000000
1656293163.288,0.000000
1656293164.288,0.000000
1656293165.288,0.000000
1656293166.288,0.000000
1656293167.288,0.000000
1656293168.288,0.000000
1656293169.288,0.000000
1656293170.288,0.000000
1656293171.288,0.000000
1656293172.288,0.000000
1656293173.288,0.000000
1656293174.288,0.000000
1656293175.288,0.000000
1656293176.288,0.000000
1656293177.288,0.000000
1656293178.288,0.000000
1656293179.288,0.000000
1656293180.288,0.000000
1656293181.288,0.000000
1656293182.288,0.000000
1656293183.288,0.000000
1656293184.288,0.000000
1656293185.288,0.000000
1656293186.288,0.000000
1656293187.288,0.000000
1656293188.288,0.000000
1656293189.288,0.000000
1656293190.288,0.000000
1656293191.288,0.000000
1656293192.288,0.000000
1656293193.288,0.000000
1656293194.288,0.000000
1656293195.288,0.000000
1656293196.288,0.000000
1656293197.288,0.000000
1656293198.288,0.000000
1656293199.288,0.000000
1656293200.288,0.000000
1656293201.288,0.000000
1656293202.288,0.000000
1656293203.288,0.000000
1656293204.288,0.000000
1656293205.288,0.000000
1656293206.288,0.000000
1656293207.288,0.000000
1656293208.288,0.000000
1656293209.288,0.000000
1656293210.288,0.000000
1656293211.288,0.000000
1656293212.288,0.000000
1656293213.288,0.000000
1656293214.288,0.000000
1656293215.288,0.000000
1656293216.288,0.000000
1656293217.288,0.000000
1656293218.288,0.000000
1656293219.288,0.000000
1656293220.288,0.000000
1656293221.288,0.000000
1656293222.288,0.000000
1656293223.288,0.000000
1656293224.288,0.000000
1656293225.289,0.000000
1656293226.288,0.000000
1656293227.288,0.000000
1656293228.288,0.000000
1656293229.288,0.000000
1656293230.288,0.000000
1656293231.288,0.000000
1656293232.288,0.000000
1656293233.288,0.000000
1656293234.288,0.000000
1656293235.288,0.000000
1656293236.288,0.000000
1656293237.288,0.000000
1656293238.288,0.000000
1656293239.288,0.000000
1656293240.288,0.000000
1656293241.288,0.000000
1656293242.288,0.000000
1656293243.288,0.000000
1656293244.288,0.000000
1656293245.288,0.000000
1656293246.288,0.000000
1656293247.288,0.000000
1656293248.288,0.000000
1656293249.288,0.000000
1656293250.288,0.000000
1656293251.288,0.000000
1656293252.288,0.000000
1656293253.288,0.000000
1656293254.288,0.000000
1656293255.289,0.000000
1656293256.288,0.000000
1656293257.288,0.000000
1656293258.288,0.000000
1656293259.288,0.000000
1656293260.288,0.000000
1656293261.288,0.000000
1656293262.288,0.000000
1656293263.288,0.000000
1656293264.288,0.000000
1656293265.288,0.000000
1656293266.288,0.000000
1656293267.288,0.000000
1656293268.288,0.000000
1656293269.288,0.000000
1656293270.288,0.000000
1656293271.288,0.000000
1656293272.288,0.000000
1656293273.288,0.000000
1656293274.288,0.000000
1656293275.288,0.000000
1656293276.288,0.000000
1656293277.288,0.000000
1656293278.288,0.000000
1656293279.288,0.000000
1656293280.288,0.000000
1656293281.288,0.000000
1656293282.288,0.000000
1656293283.288,0.000000
1656293284.288,0.000000
1656293285.288,0.000000
1656293286.288,0.000000
1656293287.288,0.000000
1656293288.288,0.000000
1656293289.288,0.000000
1656293290.288,0.000000
1656293291.288,0.000000
1656293292.288,0.000000
1656293293.288,0.000000
1656293294.288,0.000000
1656293295.288,0.000000
1656293296.288,0.000000
1656293297.288,0.000000
1656293298.288,0.000000
1656293299.288,0.000000
1656293300.288,0.000000
1656293301.288,0.000000
1656293302.288,0.000000
1656293303.288,0.000000
1656293304.288,0.000000
1656293305.288,0.000000
1656293306.288,0.000000
1656293307.288,0.000000
1656293308.288,0.000000
1656293309.288,0.000000
1656293310.288,0.000000
1656293311.288,0.990099
1656293312.288,0.000000
1656293313.288,0.000000
1656293314.288,0.000000
1656293315.288,0.000000
1656293316.288,0.000000
1656293317.288,0.000000
1656293318.288,0.000000
1656293319.288,0.000000
1656293320.288,0.000000
1656293321.288,0.000000
1656293322.288,0.000000
1656293323.288,0.000000
1656293324.288,0.000000
1656293325.288,0.000000
1656293326.288,0.000000
1656293327.288,0.000000
1656293328.288,0.000000
1656293329.288,0.000000
1656293330.288,0.000000
1656293331.288,0.000000
1656293332.288,0.000000
1656293333.288,0.000000
1656293334.288,0.000000
1656293335.288,0.000000
1656293336.288,0.000000
1656293337.288,0.000000
1656293338.288,0.000000
1656293339.288,0.000000
1656293340.288,0.000000
1656293341.288,0.000000
1656293342.288,0.000000
1656293343.288,0.000000
1656293344.288,0.000000
1656293345.288,0.000000
1656293346.288,0.000000
1656293347.288,0.000000
1656293348.288,0.000000
1656293349.288,0.000000
1656293350.288,0.000000
1656293351.288,0.000000
1656293352.288,0.000000
1656293353.288,0.000000
1656293354.288,0.000000
1656293355.288,0.000000
1656293356.288,0.000000
1656293357.288,0.000000
1656293358.288,0.000000
1656293359.288,0.000000
1656293360.288,0.000000
1656293361.288,0.000000
1656293362.288,0.000000
1656293363.288,0.000000
1656293364.288,0.000000
1656293365.288,0.000000
1656293366.289,0.000000
1656293367.288,0.000000
1656293368.288,0.000000
1656293369.289,10.101010
1656293370.289,4.000000
1656293371.289,44.444444
1656293372.289,67.000000
1656293373.291,64.000000
1656293374.289,67.000000
1656293375.288,71.000000
1656293376.311,56.730769
1656293377.289,39.393939
1656293378.289,54.545455
1656293379.289,70.707071
1656293380.289,50.505051
1656293381.289,0.000000
1656293382.289,0.000000
1656293383.289,17.000000
1656293384.290,4.040404
1656293385.289,0.000000
1656293386.334,0.000000
1656293387.288,9.677419
1656293388.289,19.387755
1656293389.289,17.000000
1656293390.289,35.714286
1656293391.289,19.000000
1656293392.289,0.000000
1656293393.314,0.000000
1656293394.289,0.000000
1656293395.289,1.010101
1656293396.289,25.773196
1656293397.289,3.000000
1656293398.312,0.000000
1656293399.289,0.000000
1656293400.288,1.000000
1656293401.289,2.020202
1656293402.289,0.000000
1656293403.289,0.000000
1656293404.288,0.000000
1656293405.289,0.000000
1656293406.291,24.509804
1656293407.289,27.835052
1656293408.288,32.323232
1656293409.289,22.680412
1656293410.288,42.857143
1656293411.289,53.000000
1656293412.289,65.000000
1656293413.289,31.313131
1656293414.290,61.855670
1656293415.289,52.525253
1656293416.291,20.652174
1656293417.289,0.000000
1656293418.289,0.000000
1656293419.289,0.000000
1656293420.289,19.191919
1656293421.289,39.000000
1656293422.290,27.272727
1656293423.289,32.323232
1656293424.289,30.081301
1656293425.289,27.551020
1656293426.289,21.505376
1656293427.289,0.000000
1656293428.289,4.950495
1656293429.289,1.010101
1656293430.289,17.894737
1656293431.289,26.000000
1656293432.289,25.000000
1656293433.293,29.000000
1656293434.289,23.711340
1656293435.289,31.958763
1656293436.289,9.090909
1656293437.289,0.000000
1656293438.289,0.000000
1656293439.289,0.000000
1656293440.289,0.000000
1656293441.289,0.000000
1656293442.557,0.000000
1656293443.289,0.000000
1656293444.289,0.000000
1656293445.289,0.000000
1656293446.289,0.000000
1656293447.288,0.000000
1656293448.289,0.000000
1656293449.289,2.020202
1656293450.289,18.367347
1656293451.289,0.000000
1656293452.289,0.000000
1656293453.300,0.000000
1656293454.289,0.000000
1656293455.289,0.000000
1656293456.289,27.000000
1656293457.290,20.408163
1656293458.289,32.989691
1656293459.289,19.191919
1656293460.289,22.680412
1656293461.290,19.191919
1656293462.289,39.175258
1656293463.289,20.202020
1656293464.291,22.222222
1656293465.290,21.212121
1656293466.290,50.000000
1656293467.289,18.446602
1656293468.289,45.535714
1656293469.289,33.333333
1656293470.289,44.954128
1656293471.289,43.037975
1656293472.289,3.960396
1656293473.289,1.000000
1656293474.289,25.000000
1656293475.289,47.000000
1656293476.289,13.043478
1656293477.289,21.505376
1656293478.289,12.244898
1656293479.289,6.185567
1656293480.297,0.000000
1656293481.289,0.000000
1656293482.300,8.910891
1656293483.341,50.000000
1656293484.289,0.000000
1656293485.289,0.000000
1656293486.289,0.000000
1656293487.289,0.000000
1656293488.289,0.000000
1656293489.289,0.000000
1656293490.292,0.000000
1656293491.289,0.000000
1656293492.291,0.000000
1656293493.289,2.000000
1656293494.290,52.040816
1656293495.289,74.000000
1656293496.289,68.000000
1656293497.290,67.000000
1656293498.290,68.000000
1656293499.289,49.504950
1656293500.289,27.272727
1656293501.289,42.857143
1656293502.289,44.554455
1656293503.289,56.565657
1656293504.289,49.038462
1656293505.292,7.000000
1656293506.289,0.000000
1656293507.295,0.000000
1656293508.290,0.000000
1656293509.289,0.000000
1656293510.289,5.000000
1656293511.290,31.578947
1656293512.289,30.526316
1656293513.289,14.432990
1656293514.289,42.105263
1656293515.290,25.252525
1656293516.289,21.875000
1656293517.289,19.191919
1656293518.289,0.990099
1656293519.289,0.000000
1656293520.289,1.000000
1656293521.304,0.000000
1656293522.289,21.875000
1656293523.289,50.505051
1656293524.289,22.448980
1656293525.289,23.711340
1656293526.289,13.541667
1656293527.289,11.458333
1656293528.290,67.000000
1656293529.289,51.000000
1656293530.288,35.789474
1656293531.288,9.000000
1656293532.289,42.424242
1656293533.289,41.284404
1656293534.290,26.415094
1656293535.289,15.625000
1656293536.289,46.000000
1656293537.289,33.673469
1656293538.289,25.925926
1656293539.288,0.000000
1656293540.289,0.000000
1656293541.289,17.924528
1656293542.289,29.245283
1656293543.290,43.434343
1656293544.289,13.402062
1656293545.289,20.430108
1656293546.289,30.927835
1656293547.289,48.000000
1656293548.289,67.000000
1656293549.289,63.636364
1656293550.290,63.000000
1656293551.298,66.000000
1656293552.289,50.515464
1656293553.295,3.092784
1656293554.289,0.000000
1656293555.289,0.000000
1656293556.289,2.000000
1656293557.289,40.816327
1656293558.289,21.875000
1656293559.289,29.000000
1656293560.289,29.896907
1656293561.289,28.282828
1656293562.289,0.000000
1656293563.289,0.000000
1656293564.288,0.000000
1656293565.289,0.000000
1656293566.298,0.000000
1656293567.289,0.000000
1656293568.289,0.000000
1656293569.289,7.291667
1656293570.289,29.000000
1656293571.289,31.632653
1656293572.304,0.000000
1656293573.296,26.262626
1656293574.289,45.744681
1656293575.289,8.000000
1656293576.289,18.000000
1656293577.289,1.030928
1656293578.289,28.571429
1656293579.289,31.067961
1656293580.289,25.773196
1656293581.290,6.000000
1656293582.289,24.000000
1656293583.289,36.082474
1656293584.289,39.393939
1656293585.289,0.000000
1656293586.289,28.846154
1656293587.289,18.556701
1656293588.289,37.755102
1656293589.289,30.303030
1656293590.289,14.285714
1656293591.289,0.000000
1656293592.289,0.000000
1656293593.289,1.000000
1656293594.290,24.489796
1656293595.341,11.650485
1656293596.290,23.913043
1656293597.289,1.063830
1656293598.289,1.020408
1656293599.289,35.000000
1656293600.289,57.425743
1656293601.289,14.893617
1656293602.289,2.197802
1656293603.289,25.510204
1656293604.289,45.454545
1656293605.289,50.495050
1656293606.289,44.554455
1656293607.289,22.680412
1656293608.288,0.000000
1656293609.289,22.222222
1656293610.290,34.375000
1656293611.289,21.000000
1656293612.289,28.865979
1656293613.289,23.711340
1656293614.289,19.587629
1656293615.289,45.918367
1656293616.303,54.901961
1656293617.289,38.775510
1656293618.289,39.000000
1656293619.289,21.276596
1656293620.289,16.666667
1656293621.289,0.000000
1656293622.289,0.000000
1656293623.289,0.000000
1656293624.326,0.000000
1656293625.289,0.000000
1656293626.289,0.000000
1656293627.289,23.469388
1656293628.289,0.000000
1656293629.289,1.000000
1656293630.289,6.122449
1656293631.289,14.285714
1656293632.295,52.040816
1656293633.291,12.222222
1656293634.289,9.375000
1656293635.305,20.618557
1656293636.289,38.144330
1656293637.289,19.191919
1656293638.290,0.000000
1656293639.289,26.804124
1656293640.289,18.947368
1656293641.289,22.105263
1656293642.289,51.000000
1656293643.289,46.391753
1656293644.289,40.404040
1656293645.289,22.916667
1656293646.289,18.947368
1656293647.294,32.000000
1656293648.289,26.373626
1656293649.289,5.494505
1656293650.289,29.473684
1656293651.289,56.122449
1656293652.288,12.631579
1656293653.289,10.891089
1656293654.290,31.632653
1656293655.289,33.684211
1656293656.289,16.326531
1656293657.289,51.000000
1656293658.289,24.242424
1656293659.289,9.574468
1656293660.289,18.181818
1656293661.289,49.494949
1656293662.289,44.000000
1656293663.289,29.473684
1656293664.297,5.154639
1656293665.290,30.526316
1656293666.289,46.153846
1656293667.289,5.102041
1656293668.289,0.000000
1656293669.289,2.020202
1656293670.289,29.292929
1656293671.296,57.000000
1656293672.312,31.000000
1656293673.289,22.340426
1656293674.289,62.000000
1656293675.298,71.287129
1656293676.289,68.000000
1656293677.289,61.165049
1656293678.289,3.921569
1656293679.289,10.309278
1656293680.289,0.000000
1656293681.289,0.000000
1656293682.289,3.000000
1656293683.289,17.171717
1656293684.289,34.343434
1656293685.289,26.804124
1656293686.289,27.272727
1656293687.289,30.612245
1656293688.289,30.927835
1656293689.289,16.494845
1656293690.289,6.000000
1656293691.290,0.000000
1656293692.289,0.000000
1656293693.289,17.171717
1656293694.289,48.543689
1656293695.289,42.268041
1656293696.289,19.417476
1656293697.289,4.123711
1656293698.289,22.222222
1656293699.289,10.309278
1656293700.291,6.315789
1656293701.289,44.897959
1656293702.289,52.252252
1656293703.289,15.000000
1656293704.289,0.000000
1656293705.289,26.530612
1656293706.298,14.141414
1656293707.289,52.577320
1656293708.289,16.000000
1656293709.289,0.000000
1656293710.293,0.000000
1656293711.289,0.000000
1656293712.289,0.000000
1656293713.289,0.000000
1656293714.289,0.000000
1656293715.289,0.000000
1656293716.289,0.000000
1656293717.289,0.000000
1656293718.289,0.000000
1656293719.289,0.000000
1656293720.289,0.000000
1656293721.295,0.000000
1656293722.289,60.000000
1656293723.288,42.000000
1656293724.289,31.067961
1656293725.289,34.736842
1656293726.289,1.020408
1656293727.289,0.000000
1656293728.289,1.980198
1656293729.288,30.303030
1656293730.289,34.693878
1656293731.296,49.019608
1656293732.289,40.625000
1656293733.289,3.191489
1656293734.288,25.000000
1656293735.289,6.521739
1656293736.290,43.434343
1656293737.289,37.755102
1656293738.289,32.291667
1656293739.289,12.371134
1656293740.289,0.000000
1656293741.289,0.000000
1656293742.289,0.000000
1656293743.289,0.000000
1656293744.289,0.000000
1656293745.289,0.000000
1656293746.305,4.950495
1656293747.289,36.458333
1656293748.289,56.000000
1656293749.289,19.801980
1656293750.289,28.282828
1656293751.289,52.525253
1656293752.289,47.474747
1656293753.289,45.454545
1656293754.289,25.510204
1656293755.304,27.722772
1656293756.289,51.546392
1656293757.289,46.938776
1656293758.289,28.260870
1656293759.289,37.000000
1656293760.289,35.869565
1656293761.289,63.366337
1656293762.293,70.000000
1656293763.289,72.277228
1656293764.289,64.646465
1656293765.288,42.857143
1656293766.289,39.423077
1656293767.289,46.534653
1656293768.289,31.372549
1656293769.289,30.927835
1656293770.289,60.606061
1656293771.289,21.000000
1656293772.289,30.303030
1656293773.289,36.842105
1656293774.289,38.000000
1656293775.289,32.323232
1656293776.296,52.475248
1656293777.289,34.736842
1656293778.289,26.595745
1656293779.289,24.000000
1656293780.289,11.827957
1656293781.289,43.434343
1656293782.290,59.595960
1656293783.289,12.000000
1656293784.289,35.789474
1656293785.289,20.879121
1656293786.289,15.151515
1656293787.288,37.113402
1656293788.289,37.113402
1656293789.289,44.329897
1656293790.289,10.000000
1656293791.300,0.000000
1656293792.294,0.000000
1656293793.289,9.183673
1656293794.293,49.494949
1656293795.289,4.166667
1656293796.292,0.000000
1656293797.289,0.000000
1656293798.289,24.489796
1656293799.289,17.525773
1656293800.289,24.175824
1656293801.289,25.531915
1656293802.308,51.515152
1656293803.289,51.020408
1656293804.297,27.551020
1656293805.289,8.163265
1656293806.289,0.000000
1656293807.289,0.000000
1656293808.289,26.041667
1656293809.289,32.989691
1656293810.289,23.404255
1656293811.289,18.750000
1656293812.289,21.276596
1656293813.290,33.673469
1656293814.289,19.587629
1656293815.289,0.000000
1656293816.289,0.000000
1656293817.289,0.000000
1656293818.289,0.000000
1656293819.289,34.905660
1656293820.289,0.000000
1656293821.289,0.000000
1656293822.289,0.000000
1656293823.289,0.000000
1656293824.289,14.736842
1656293825.289,52.427184
1656293826.289,60.396040
1656293827.289,69.306931
1656293828.289,58.000000
1656293829.289,72.727273
1656293830.289,4.123711
1656293831.289,2.040816
1656293832.289,0.000000
1656293833.289,0.000000
1656293834.288,0.000000
1656293835.289,15.151515
1656293836.290,34.313725
1656293837.289,56.435644
1656293838.289,4.210526
1656293839.289,26.315789
1656293840.289,25.252525
1656293841.290,34.343434
1656293842.289,29.591837
1656293843.290,0.000000
1656293844.289,8.000000
1656293845.289,24.731183
1656293846.289,32.631579
1656293847.289,31.000000
1656293848.289,49.000000
1656293849.289,16.666667
1656293850.289,22.680412
1656293851.295,27.551020
1656293852.289,26.041667
1656293853.289,38.775510
1656293854.289,0.000000
1656293855.289,0.000000
1656293856.289,0.000000
1656293857.290,0.000000
1656293858.289,0.000000
1656293859.289,0.000000
1656293860.289,13.265306
1656293861.289,30.526316
1656293862.291,20.430108
1656293863.289,43.877551
1656293864.289,30.851064
1656293865.289,25.000000
1656293866.289,12.903226
1656293867.289,12.903226
1656293868.289,33.333333
1656293869.290,23.711340
1656293870.289,28.846154
1656293871.289,41.052632
1656293872.289,17.171717
1656293873.298,0.000000
1656293874.289,0.000000
1656293875.293,0.000000
1656293876.289,29.166667
1656293877.289,31.958763
1656293878.297,25.000000
1656293879.289,60.606061
1656293880.289,46.464646
1656293881.289,60.606061
1656293882.289,30.612245
1656293883.289,45.833333
1656293884.290,32.258065
1656293885.289,10.752688
1656293886.290,15.306122
1656293887.288,13.829787
1656293888.316,44.117647
1656293889.289,31.958763
1656293890.289,37.000000
1656293891.289,10.869565
1656293892.289,2.040816
1656293893.290,4.123711
1656293894.292,38.144330
1656293895.289,25.252525
1656293896.289,15.151515
1656293897.289,0.000000
1656293898.300,0.000000
1656293899.289,0.000000
1656293900.295,0.000000
1656293901.289,0.000000
1656293902.295,0.000000
1656293903.289,18.181818
1656293904.289,47.474747
1656293905.289,43.434343
1656293906.290,31.914894
1656293907.289,30.000000
1656293908.309,38.000000
1656293909.290,25.000000
1656293910.289,39.175258
1656293911.289,43.000000
1656293912.289,19.587629
1656293913.289,31.313131
1656293914.292,0.000000
1656293915.289,17.894737
1656293916.289,40.816327
1656293917.289,47.474747
1656293918.289,51.515152
1656293919.289,36.633663
1656293920.289,51.515152
1656293921.289,9.900990
1656293922.289,0.000000
1656293923.289,0.000000
1656293924.289,0.000000
1656293925.289,0.000000
1656293926.289,0.000000
1656293927.289,0.000000
1656293928.295,0.000000
1656293929.289,0.000000
1656293930.290,0.000000
1656293931.289,10.204082
1656293932.354,13.461538
1656293933.289,19.565217
1656293934.289,9.473684
1656293935.290,8.510638
1656293936.291,45.918367
1656293937.290,67.676768
1656293938.289,67.326733
1656293939.289,64.000000
1656293940.289,69.306931
1656293941.289,63.636364
1656293942.289,72.277228
1656293943.289,61.616162
1656293944.290,7.142857
1656293945.289,27.000000
1656293946.319,30.303030
1656293947.289,36.170213
1656293948.292,1.010101
1656293949.289,0.000000
1656293950.289,0.000000
1656293951.290,0.000000
1656293952.289,0.000000
1656293953.289,2.020202
1656293954.289,13.402062
1656293955.289,6.315789
1656293956.289,2.040816
1656293957.289,0.000000
1656293958.289,11.458333
1656293959.289,12.765957
1656293960.289,54.000000
1656293961.290,23.232323
1656293962.289,48.484848
1656293963.289,42.857143
1656293964.289,71.717172
1656293965.288,71.000000
1656293966.289,49.549550
1656293967.289,36.000000
1656293968.289,35.353535
1656293969.289,19.801980
1656293970.289,0.000000
1656293971.289,4.040404
1656293972.289,42.424242
1656293973.288,58.000000
1656293974.289,38.000000
1656293975.289,13.131313
1656293976.288,16.842105
1656293977.289,20.202020
1656293978.289,23.529412
1656293979.289,39.361702
1656293980.289,31.683168
1656293981.289,0.990099
1656293982.307,0.000000
1656293983.289,0.000000
1656293984.289,0.000000
1656293985.291,0.000000
1656293986.289,3.061224
1656293987.295,11.224490
1656293988.289,17.708333
1656293989.288,18.556701
1656293990.289,69.000000
1656293991.289,18.446602
1656293992.289,29.591837
1656293993.289,39.795918
1656293994.289,46.464646
1656293995.293,49.000000
1656293996.289,50.000000
1656293997.289,34.343434
1656293998.289,34.905660
1656293999.289,54.545455
1656294000.289,48.000000
1656294001.291,37.113402
1656294002.289,14.285714
1656294003.289,11.111111
1656294004.318,44.339623
1656294005.290,29.166667
1656294006.288,2.020202
1656294007.289,13.829787
1656294008.288,36.363636
1656294009.289,40.625000
1656294010.289,43.298969
1656294011.289,30.208333
1656294012.289,18.367347
1656294013.291,33.962264
1656294014.289,19.791667